1522594800.63,39631,10.94,71202.8,-9.73,-11.15,-11.23,0,*56
1522594801.83,39632,10.94,71168.0,-9.75,-11.23,-11.01,0,*56
1522594803.04,39633,10.94,71188.0,-9.75,-11.11,-11.11,0,*57
1522594804.26,39634,10.94,71172.3,-9.73,-10.85,-10.89,0,*5A
1522594805.49,39635,10.94,71176.3,-9.73,-10.89,-10.97,0,*58
1522594806.7,39636,10.94,71180.3,-9.71,-10.85,-10.93,0,*51
1522594807.89,39637,10.94,71192.3,-9.71,-10.93,-10.85,0,*50
1522594809.09,39638,10.94,71186.3,-9.71,-10.85,-10.93,0,*5F
1522594810.31,39639,10.94,71160.3,-9.67,-10.97,-10.97,0,*5E
1522594811.54,39640,10.94,71156.5,-9.71,-11.07,-10.93,0,*5B
1522594812.73,39641,10.94,71176.3,-9.71,-10.85,-10.85,0,*56
1522594813.93,39642,10.94,71136.8,-9.67,-10.85,-10.93,0,*55
1522594815.13,39643,10.94,71160.0,-9.67,-10.85,-10.93,0,*54
1522594816.36,39644,10.94,71174.5,-9.67,-10.85,-10.79,0,*57
1522594817.55,39645,10.94,71232.5,-9.71,-10.85,-10.85,0,*52
1522594818.77,39646,10.94,71236.0,-9.67,-10.79,-10.85,0,*55
1522594819.97,39647,10.94,71226.3,-9.67,-10.93,-10.85,0,*50
1522594821.18,39648,10.94,71246.8,-9.67,-10.93,-10.97,0,*5C
1522594822.38,39649,10.94,71232.3,-9.67,-10.93,-10.93,0,*59
1522594823.61,39650,10.94,71214.5,-9.65,-10.89,-10.89,0,*53
1522594824.86,39651,10.94,71234.0,-9.65,-11.07,-11.01,0,*54
1522594826.12,39652,10.94,71256.3,-9.63,-10.79,-10.79,0,*57
1522594827.41,39653,10.94,71266.8,-9.65,-10.67,-10.67,0,*50
1522594828.67,39654,10.94,71258.5,-9.63,-10.67,-10.67,0,*51
1522594829.95,39655,10.94,71264.8,-9.65,-10.75,-10.63,0,*51
1522594831.21,39656,10.94,71268.3,-9.65,-10.89,-10.79,0,*5A
1522594832.49,39657,10.94,71264.5,-9.65,-10.79,-10.79,0,*54
1522594833.75,39658,10.94,71264.5,-9.63,-10.75,-10.67,0,*5E
1522594834.95,39659,10.94,71248.8,-9.63,-10.93,-10.93,0,*5C
1522594836.16,39660,10.94,71238.0,-9.63,-11.01,-11.15,0,*53
1522594837.36,39661,10.94,71238.5,-9.63,-10.89,-10.89,0,*57
1522594838.62,39662,10.94,71242.5,-9.63,-10.63,-10.75,0,*53
1522594839.88,39663,10.94,71242.3,-9.63,-10.67,-10.67,0,*55
1522594841.14,39664,10.94,71258.0,-9.61,-10.63,-10.57,0,*57
1522594842.4,39665,10.94,71256.3,-9.61,-10.49,-10.63,0,*59
1522594843.69,39666,10.94,71254.3,-9.61,-10.71,-10.63,0,*51
1522594844.92,39667,10.94,71248.3,-9.63,-10.89,-10.79,0,*5E
1522594846.15,39668,10.94,71252.3,-9.61,-10.89,-10.89,0,*5C
1522594847.39,39669,10.94,71264.5,-9.61,-11.01,-10.97,0,*53
1522594848.64,39670,10.94,71250.0,-9.61,-10.85,-10.63,0,*5D
1522594849.9,39671,10.94,71236.5,-9.61,-10.85,-10.71,0,*5F
1522594851.13,39672,10.94,71200.3,-9.61,-10.97,-10.89,0,*58
1522594852.34,39673,10.94,71208.5,-9.59,-11.23,-11.15,0,*58
1522594853.62,39674,10.94,71192.5,-9.61,-11.81,-11.67,0,*59
1522594854.81,39675,10.94,71212.8,-9.63,-11.19,-11.19,0,*52
1522594856.04,39676,10.94,71194.8,-9.65,-11.19,-11.15,0,*5B
1522594857.24,39677,10.94,71216.3,-9.63,-11.01,-10.89,0,*51
1522594858.47,39678,10.94,71246.0,-9.63,-11.51,-11.45,0,*5A
1522594859.72,39679,10.94,71238.3,-9.63,-11.89,-11.73,0,*5B
1522594860.97,39680,10.94,71202.3,-9.63,-11.77,-11.73,0,*5C
1522594862.25,39681,10.94,71228.0,-9.65,-11.33,-11.33,0,*5F
1522594863.53,39682,10.94,71238.5,-9.65,-11.29,-11.29,0,*5C
1522594864.8,39683,10.94,71208.5,-9.65,-11.51,-11.51,0,*5D
1522594866.08,39684,10.94,71224.8,-9.65,-11.73,-11.59,0,*52
1522594867.35,39685,10.94,71238.0,-9.65,-11.51,-11.33,0,*5F
1522594868.63,39686,10.94,71228.0,-9.65,-11.59,-11.51,0,*50
1522594869.85,39687,10.94,71226.5,-9.65,-11.19,-11.15,0,*55
1522594871.13,39688,10.94,71244.5,-9.65,-11.33,-11.29,0,*5D
1522594872.39,39689,10.94,71244.8,-9.67,-11.67,-11.63,0,*51
1522594873.64,39690,10.94,71232.5,-9.67,-11.81,-11.89,0,*55
1522594874.89,39691,10.94,71246.3,-9.71,-11.63,-11.51,0,*5A
1522594876.14,39692,10.94,71224.8,-9.71,-11.55,-11.37,0,*5C
1522594877.39,39693,10.94,71228.3,-9.71,-11.51,-11.37,0,*59
1522594878.61,39694,10.94,71238.8,-9.67,-11.37,-11.23,0,*5C
1522594879.86,39695,10.94,71236.8,-9.71,-11.63,-11.51,0,*5E
1522594881.12,39696,10.94,71198.5,-9.71,-11.55,-11.63,0,*59
1522594882.37,39697,10.94,71210.5,-9.71,-11.55,-11.37,0,*59
1522594883.63,39698,10.94,71186.3,-9.71,-11.63,-11.55,0,*57
1522594884.88,39699,10.94,71162.0,-9.71,-11.89,-11.81,0,*5B
1522594886.08,39700,10.94,71078.0,-9.71,-11.45,-11.45,0,*52
1522594887.33,39701,10.94,71174.5,-9.71,-11.33,-11.33,0,*53
1522594888.59,39702,10.94,71164.3,-9.71,-11.63,-11.63,0,*50
1522594889.87,39703,10.94,71180.5,-9.73,-11.85,-11.67,0,*5F
1522594891.12,39704,10.94,71192.8,-9.75,-11.55,-11.51,0,*56
1522594892.4,39705,10.94,71190.8,-9.73,-11.51,-11.51,0,*55
1522594893.63,39706,10.94,71180.8,-9.73,-11.15,-11.15,0,*56
1522594894.86,39707,10.94,71180.8,-9.73,-11.23,-11.23,0,*57
1522594896.09,39708,10.94,71180.5,-9.73,-11.01,-11.11,0,*59
1522594897.32,39709,10.94,71184.3,-9.71,-11.07,-10.93,0,*57
1522594898.55,39710,10.94,71198.3,-9.71,-11.11,-11.07,0,*54
1522594899.83,39711,10.94,71198.3,-9.73,-11.59,-11.51,0,*58
1522594901.11,39712,10.94,71184.0,-9.73,-11.67,-11.55,0,*52
1522594902.39,39713,10.94,71172.0,-9.73,-11.73,-11.67,0,*57
1522594903.64,39714,10.94,71126.5,-9.75,-11.73,-11.59,0,*5B
1522594904.91,39715,10.94,71172.5,-9.73,-11.59,-11.51,0,*5C
1522594906.16,39716,10.94,71168.8,-9.73,-11.37,-11.23,0,*52
1522594907.4,39717,10.94,71142.3,-9.75,-11.59,-11.41,0,*59
1522594908.65,39718,10.94,71184.0,-9.75,-11.37,-11.29,0,*50
1522594909.93,39719,10.94,71172.8,-9.73,-11.67,-11.51,0,*5D
1522594911.21,39720,10.94,71186.5,-9.73,-11.51,-11.51,0,*52
1522594912.46,39721,10.94,71192.8,-9.75,-11.59,-11.55,0,*59
1522594913.75,39722,10.94,71184.0,-9.73,-11.55,-11.55,0,*50
1522594915.02,39723,10.94,71202.0,-9.73,-11.81,-11.67,0,*59
1522594916.27,39724,10.94,71166.5,-9.75,-11.73,-11.59,0,*58
1522594917.55,39725,10.94,71208.5,-9.73,-11.81,-11.73,0,*5A
1522594918.8,39726,10.94,71150.0,-9.75,-11.73,-11.55,0,*56
1522594920.06,39727,10.94,71174.8,-9.75,-11.93,-11.67,0,*58
1522594921.32,39728,10.94,71180.3,-9.75,-11.93,-11.85,0,*5B
1522594922.57,39729,10.94,71172.5,-9.75,-11.73,-11.55,0,*59
1522594923.86,39730,10.94,71146.3,-9.77,-11.77,-11.55,0,*57
1522594925.12,39731,10.94,71138.3,-9.77,-11.55,-11.45,0,*57
1522594926.38,39732,10.94,71200.5,-9.77,-11.55,-11.45,0,*54
1522594927.67,39733,10.94,71178.5,-9.77,-11.85,-11.73,0,*5D
1522594928.95,39734,10.94,71106.8,-9.77,-11.97,-11.85,0,*50
1522594930.21,39735,10.94,71136.3,-9.79,-11.85,-11.63,0,*54
1522594931.44,39736,10.94,71144.5,-9.79,-11.45,-11.33,0,*5E
1522594932.72,39737,10.94,71128.3,-9.77,-11.33,-11.33,0,*50
1522594933.95,39738,10.94,71118.5,-9.79,-11.55,-11.45,0,*50
1522594935.16,39739,10.94,71138.0,-9.79,-11.45,-11.45,0,*50
1522594936.41,39740,10.94,71126.3,-9.77,-11.45,-11.45,0,*50
1522594937.64,39741,10.94,71130.3,-9.79,-11.55,-11.45,0,*5E
1522594938.85,39742,10.94,71126.3,-9.79,-11.45,-11.41,0,*58
1522594940.09,39743,10.94,71136.8,-9.77,-11.45,-11.45,0,*53
1522594941.33,39744,10.94,71110.8,-9.79,-11.55,-11.45,0,*5B
1522594942.57,39745,10.94,71142.3,-9.77,-11.45,-11.45,0,*55
1522594943.82,39746,10.94,71148.3,-9.79,-11.33,-11.33,0,*58
1522594945.1,39747,10.94,71128.3,-9.77,-11.33,-11.29,0,*5C
1522594946.34,39748,10.94,71148.3,-9.77,-11.41,-11.41,0,*58
1522594947.58,39749,10.94,71146.3,-9.77,-11.41,-11.41,0,*59
1522594948.8,39750,10.94,71176.5,-9.79,-11.45,-11.45,0,*5F
1522594950.03,39751,10.94,71128.8,-9.79,-11.55,-11.45,0,*5F
1522594951.27,39752,10.94,71138.8,-9.77,-11.45,-11.45,0,*53
1522594952.51,39753,10.94,71142.0,-9.77,-11.41,-11.41,0,*52
1522594953.72,39754,10.94,71148.0,-9.79,-11.41,-11.45,0,*5F
1522594954.98,39755,10.94,71186.3,-9.77,-11.41,-11.33,0,*51
1522594956.26,39756,10.94,71190.5,-9.77,-11.29,-11.33,0,*5C
1522594957.52,39757,10.94,71184.0,-9.77,-11.15,-11.07,0,*55
1522594958.76,39758,10.94,71196.3,-9.77,-11.01,-11.01,0,*59
1522594959.99,39759,10.94,71168.5,-9.77,-11.19,-11.19,0,*58
1522594961.22,39760,10.94,71180.3,-9.77,-11.15,-11.19,0,*5E
1522594962.44,39761,10.94,71178.5,-9.75,-10.97,-10.97,0,*51
1522594963.64,39762,10.94,71176.5,-9.75,-11.11,-11.11,0,*52
1522594964.87,39763,10.94,71186.5,-9.73,-10.97,-10.89,0,*5A
1522594966.1,39764,10.94,71184.3,-9.73,-11.15,-11.15,0,*52
1522594967.35,39765,10.94,71162.3,-9.75,-11.37,-11.37,0,*55
1522594968.56,39766,10.94,71166.0,-9.75,-11.23,-11.15,0,*53
1522594969.79,39767,10.94,71166.8,-9.73,-11.15,-11.15,0,*51
1522594971.01,39768,10.94,71162.8,-9.73,-11.15,-11.11,0,*5A
1522594972.27,39769,10.94,71166.0,-9.75,-11.37,-11.29,0,*56
1522594973.47,39770,10.94,71148.5,-9.75,-11.11,-11.01,0,*50
1522594974.7,39771,10.94,71156.5,-9.73,-11.15,-11.23,0,*53
1522594975.93,39772,10.94,71168.5,-9.73,-11.15,-11.23,0,*50
1522594977.16,39773,10.94,71184.3,-9.73,-11.23,-11.15,0,*51
1522594978.43,39774,10.94,71192.3,-9.73,-11.37,-11.29,0,*5C
1522594979.67,39775,10.94,71174.8,-9.75,-11.29,-11.23,0,*5E
1522594980.89,39776,10.94,71152.5,-9.73,-11.15,-11.15,0,*51
1522594982.14,39777,10.94,71136.3,-9.75,-11.37,-11.37,0,*56
1522594983.38,39778,10.94,71114.3,-9.75,-11.29,-11.15,0,*56
1522594984.59,39779,10.94,71124.0,-9.75,-11.01,-11.01,0,*58
1522594985.82,39780,10.94,71152.3,-9.73,-11.11,-11.01,0,*59
1522594987.02,39781,10.94,71168.0,-9.75,-11.11,-11.01,0,*5E
1522594988.26,39782,10.94,71186.8,-9.73,-11.01,-11.01,0,*5A
1522594989.49,39783,10.94,71172.5,-9.73,-11.01,-10.97,0,*55
1522594990.72,39784,10.94,71174.8,-9.73,-10.89,-10.89,0,*5C
1522594991.95,39785,10.94,71146.8,-9.73,-11.11,-11.01,0,*5C
1522594993.15,39786,10.94,71166.8,-9.71,-11.11,-10.97,0,*53
1522594994.38,39787,10.94,71180.8,-9.71,-11.07,-11.11,0,*5A
1522594995.58,39788,10.94,71186.8,-9.71,-11.11,-11.19,0,*5A
1522594996.82,39789,10.94,71204.5,-9.71,-11.07,-10.97,0,*5B
1522594998.02,39790,10.94,71196.5,-9.71,-10.85,-10.93,0,*5C
1522594999.23,39791,10.94,71204.5,-9.71,-10.97,-10.93,0,*5E
1522595000.43,39792,10.94,71138.5,-9.71,-10.97,-10.85,0,*5A
1522595001.65,39793,10.94,71144.3,-9.71,-10.85,-10.79,0,*5B
1522595002.85,39794,10.94,71140.8,-9.71,-11.11,-11.11,0,*5F
1522595004.06,39795,10.94,71176.3,-9.67,-10.97,-10.93,0,*5D
1522595005.26,39796,10.94,71120.8,-9.71,-11.19,-11.19,0,*5D
1522595006.46,39797,10.94,71192.5,-9.71,-10.97,-10.85,0,*5F
1522595007.66,39798,10.94,71206.8,-9.71,-10.93,-10.93,0,*53
1522595008.89,39799,10.94,71210.3,-9.71,-11.07,-11.11,0,*55
1522595010.12,39800,10.94,71210.3,-9.71,-11.07,-10.97,0,*55
1522595011.36,39801,10.94,71202.0,-9.71,-11.07,-10.97,0,*54
1522595012.57,39802,10.94,71186.0,-9.67,-10.93,-10.97,0,*5C
1522595013.76,39803,10.94,71182.8,-9.71,-11.19,-11.19,0,*5E
1522595014.99,39804,10.94,71224.5,-9.71,-11.33,-11.19,0,*51
1522595016.21,39805,10.94,71240.8,-9.67,-11.37,-11.45,0,*5A
1522595017.46,39806,10.94,71250.3,-9.71,-11.37,-11.33,0,*5F
1522595018.66,39807,10.94,71262.5,-9.67,-11.23,-11.23,0,*5D
1522595019.92,39808,10.94,71264.5,-9.67,-11.07,-11.07,0,*52
1522595021.15,39809,10.94,71256.8,-9.67,-11.11,-11.07,0,*54
1522595022.38,39810,10.94,71256.8,-9.67,-11.07,-10.97,0,*53
1522595023.57,39811,10.94,71252.3,-9.67,-11.19,-11.19,0,*5A
1522595024.8,39812,10.94,71216.5,-9.71,-11.33,-11.23,0,*5F
1522595026.03,39813,10.94,71200.0,-9.71,-11.51,-11.45,0,*5A
1522595027.27,39814,10.94,71176.5,-9.71,-11.37,-11.33,0,*5C
1522595028.5,39815,10.94,71192.0,-9.67,-11.33,-11.11,0,*5E
1522595029.72,39816,10.94,71216.8,-9.71,-11.33,-11.23,0,*5B
1522595030.92,39817,10.94,71196.0,-9.71,-11.23,-11.23,0,*5B
1522595032.15,39818,10.94,71178.8,-9.71,-11.45,-11.33,0,*55
1522595033.35,39819,10.94,71194.8,-9.71,-11.19,-11.11,0,*5D
1522595034.58,39820,10.94,71216.5,-9.71,-10.97,-10.79,0,*5F
1522595035.78,39821,10.94,71172.0,-9.71,-11.19,-11.11,0,*56
1522595036.98,39822,10.94,71202.0,-9.67,-11.11,-10.93,0,*51
1522595038.18,39823,10.94,71212.5,-9.71,-11.19,-11.11,0,*54
1522595039.4,39824,10.94,71216.0,-9.71,-11.37,-11.23,0,*5E
1522595040.62,39825,10.94,71220.5,-9.71,-11.37,-11.23,0,*5F
1522595041.86,39826,10.94,71208.5,-9.71,-11.23,-11.07,0,*5F
1522595043.06,39827,10.94,71162.5,-9.71,-11.11,-10.93,0,*53
1522595044.29,39828,10.94,71176.5,-9.71,-10.93,-10.79,0,*53
1522595045.48,39829,10.94,71184.3,-9.71,-10.85,-10.85,0,*56
1522595046.71,39830,10.94,71192.8,-9.71,-11.11,-11.07,0,*59
1522595047.94,39831,10.94,71198.8,-9.71,-11.23,-11.33,0,*5E
1522595049.13,39832,10.94,71194.8,-9.71,-11.11,-11.19,0,*54
1522595050.35,39833,10.94,71222.3,-9.67,-10.97,-10.97,0,*5A
1522595051.54,39834,10.94,71224.3,-9.71,-11.19,-11.19,0,*5A
1522595052.75,39835,10.94,71216.3,-9.71,-10.93,-10.97,0,*5F
1522595053.96,39836,10.94,71202.3,-9.67,-10.97,-10.97,0,*5F
1522595055.19,39837,10.94,71166.8,-9.71,-11.19,-11.07,0,*56
1522595056.4,39838,10.94,71174.8,-9.67,-10.97,-10.97,0,*51
1522595057.63,39839,10.94,71172.3,-9.67,-11.07,-10.97,0,*58
1522595058.89,39840,10.94,71178.8,-9.67,-11.07,-11.07,0,*5E
1522595060.15,39841,10.94,71174.0,-9.67,-11.07,-11.07,0,*5F
1522595061.36,39842,10.94,71192.5,-9.67,-10.97,-10.97,0,*5C
1522595062.56,39843,10.94,71190.8,-9.67,-10.93,-10.93,0,*5D
1522595063.79,39844,10.94,71196.8,-9.67,-11.07,-10.93,0,*56
1522595064.99,39845,10.94,71198.0,-9.67,-11.19,-11.11,0,*53
1522595066.21,39846,10.94,71214.5,-9.67,-11.33,-11.23,0,*59
1522595067.42,39847,10.94,71212.5,-9.67,-11.45,-11.45,0,*59
1522595068.64,39848,10.94,71204.5,-9.67,-11.37,-11.23,0,*53
1522595069.85,39849,10.94,71168.0,-9.67,-11.23,-11.11,0,*56
1522595071.07,39850,10.94,71180.0,-9.67,-11.33,-11.23,0,*5E
1522595072.3,39851,10.94,71198.8,-9.71,-11.33,-11.23,0,*58
1522595073.55,39852,10.94,71194.5,-9.67,-11.51,-11.37,0,*5D
1522595074.79,39853,10.94,71156.0,-9.67,-11.51,-11.37,0,*5C
1522595076.02,39854,10.94,71206.8,-9.71,-11.45,-11.37,0,*59
1522595077.25,39855,10.94,71156.5,-9.71,-11.33,-11.19,0,*55
1522595078.47,39856,10.94,71164.5,-9.67,-11.51,-11.45,0,*5C
1522595079.72,39857,10.94,71178.0,-9.71,-11.51,-11.51,0,*5F
1522595080.97,39858,10.94,71174.0,-9.71,-11.33,-11.33,0,*50
1522595082.2,39859,10.94,71196.8,-9.71,-11.45,-11.33,0,*50
1522595083.42,39860,10.94,71206.5,-9.71,-11.33,-11.23,0,*5A
1522595084.62,39861,10.94,71200.0,-9.71,-11.19,-11.19,0,*5A
1522595085.82,39862,10.94,71200.3,-9.71,-11.23,-11.19,0,*50
1522595087.05,39863,10.94,71210.8,-9.71,-11.33,-11.23,0,*59
1522595088.29,39864,10.94,71258.8,-9.71,-11.33,-11.33,0,*5F
1522595089.5,39865,10.94,71268.3,-9.67,-11.23,-11.11,0,*58
1522595090.73,39866,10.94,71262.5,-9.67,-11.07,-10.97,0,*52
1522595091.95,39867,10.94,71262.8,-9.67,-11.19,-11.07,0,*54
1522595093.18,39868,10.94,71232.5,-9.71,-11.33,-11.19,0,*5B
1522595094.41,39869,10.94,71090.0,-9.71,-11.33,-11.23,0,*53
1522595095.65,39870,10.94,71122.0,-9.71,-11.51,-11.51,0,*5A
1522595096.91,39871,10.94,71094.8,-9.71,-11.67,-11.67,0,*5B
1522595098.14,39872,10.94,71180.3,-9.71,-11.45,-11.33,0,*59
1522595099.33,39873,10.94,71220.5,-9.71,-11.19,-11.19,0,*59
1522595100.56,39874,10.94,71156.5,-9.71,-11.45,-11.33,0,*5F
1522595101.76,39875,10.94,71196.3,-9.71,-11.11,-11.11,0,*5F
1522595102.96,39876,10.94,71224.0,-9.71,-11.11,-11.11,0,*5C
1522595104.19,39877,10.94,71206.8,-9.71,-11.11,-11.07,0,*5A
1522595105.39,39878,10.94,71238.8,-9.71,-11.23,-11.19,0,*5B
1522595106.62,39879,10.94,71208.3,-9.71,-11.33,-11.45,0,*52
1522595107.87,39880,10.94,71212.8,-9.71,-11.67,-11.67,0,*55
1522595109.1,39881,10.94,71178.8,-9.71,-11.45,-11.37,0,*51
1522595110.3,39882,10.94,71192.8,-9.71,-11.19,-11.11,0,*5F
1522595111.58,39883,10.94,71204.8,-9.73,-11.29,-11.37,0,*5B
1522595112.81,39884,10.94,71158.5,-9.73,-11.23,-11.15,0,*56
1522595114.04,39885,10.94,71152.3,-9.73,-11.11,-11.15,0,*56
1522595115.31,39886,10.94,71196.5,-9.73,-11.37,-11.37,0,*51
1522595116.59,39887,10.94,71194.5,-9.73,-11.29,-11.37,0,*5F
1522595117.79,39888,10.94,71190.3,-9.71,-11.19,-11.11,0,*55
1522595119.02,39889,10.94,71188.5,-9.73,-11.01,-11.01,0,*5E
1522595120.23,39890,10.94,71186.0,-9.71,-10.97,-10.93,0,*50
1522595121.44,39891,10.94,71182.3,-9.71,-10.97,-10.93,0,*51
1522595122.64,39892,10.94,71164.8,-9.71,-10.93,-10.93,0,*56
1522595123.85,39893,10.94,71152.3,-9.71,-10.85,-10.97,0,*54
1522595125.06,39894,10.94,71160.0,-9.71,-10.97,-10.93,0,*54
1522595126.26,39895,10.94,71190.0,-9.67,-10.85,-10.93,0,*51
1522595127.46,39896,10.94,71188.0,-9.67,-10.97,-10.85,0,*56
1522595128.69,39897,10.94,71218.3,-9.71,-11.07,-10.93,0,*5F
1522595129.91,39898,10.94,71240.5,-9.67,-11.07,-10.85,0,*50
1522595131.14,39899,10.94,71218.5,-9.67,-11.19,-11.07,0,*55
1522595132.37,39900,10.94,71218.5,-9.67,-11.07,-10.93,0,*57
1522595133.59,39901,10.94,71238.3,-9.67,-11.19,-11.07,0,*55
1522595134.8,39902,10.94,71236.3,-9.67,-11.11,-10.97,0,*56
1522595136.02,39903,10.94,71246.0,-9.67,-11.19,-11.07,0,*57
1522595137.22,39904,10.94,71238.5,-9.71,-10.97,-10.85,0,*5B
1522595138.45,39905,10.94,71236.0,-9.67,-11.07,-10.93,0,*52
1522595139.71,39906,10.94,71250.3,-9.67,-11.07,-10.79,0,*55
1522595140.92,39907,10.94,71218.3,-9.67,-11.23,-10.97,0,*52
1522595142.16,39908,10.94,71196.3,-9.67,-11.55,-11.33,0,*53
1522595143.42,39909,10.94,71176.0,-9.67,-11.63,-11.37,0,*53
1522595144.64,39910,10.94,71206.0,-9.67,-11.37,-10.97,0,*51
1522595145.87,39911,10.94,71194.0,-9.71,-11.33,-11.23,0,*5D
1522595147.12,39912,10.94,71186.0,-9.67,-11.63,-11.51,0,*59
1522595148.35,39913,10.94,71178.0,-9.67,-11.63,-11.45,0,*5D
1522595149.6,39914,10.94,71192.8,-9.67,-11.63,-11.51,0,*5F
1522595150.83,39915,11.0,71174.3,-9.71,-11.63,-11.45,0,*5C
1522595152.08,39916,10.94,71186.5,-9.71,-11.55,-11.37,0,*5F
1522595153.33,39917,10.94,71192.3,-9.67,-11.51,-11.33,0,*59
1522595154.55,39918,10.94,71224.0,-9.71,-11.37,-11.11,0,*51
1522595155.78,39919,10.94,71230.5,-9.71,-11.33,-11.23,0,*55
1522595157.0,39920,10.94,71216.8,-9.71,-11.33,-11.11,0,*5E
1522595158.23,39921,10.94,71238.3,-9.71,-11.37,-11.11,0,*5B
1522595159.45,39922,10.94,71232.5,-9.71,-11.37,-11.23,0,*59
1522595160.71,39923,10.94,71244.3,-9.73,-11.29,-11.11,0,*54
1522595161.94,39924,10.94,71244.0,-9.71,-11.45,-11.33,0,*5B
1522595163.18,39925,10.94,71254.3,-9.71,-11.51,-11.37,0,*5B
1522595164.44,39926,10.94,71246.8,-9.71,-11.67,-11.55,0,*59
1522595165.72,39927,10.94,71214.5,-9.73,-11.67,-11.59,0,*56
1522595166.99,39928,10.94,71218.3,-9.73,-11.81,-11.55,0,*5D
1522595168.28,39929,10.94,71194.8,-9.73,-11.67,-11.55,0,*54
1522595169.53,39930,10.94,71184.5,-9.75,-11.59,-11.37,0,*53
1522595170.76,39931,10.94,71202.3,-9.75,-11.51,-11.23,0,*5F
1522595172.04,39932,10.94,71210.5,-9.73,-11.93,-11.73,0,*51
1522595173.3,39933,11.0,71218.0,-9.77,-12.29,-12.11,0,*51
1522595174.56,39934,10.94,71212.0,-9.79,-11.89,-11.85,0,*5F
1522595175.84,39935,10.94,71226.0,-9.77,-11.89,-11.73,0,*59
1522595177.13,39936,10.94,71242.5,-9.77,-11.97,-11.89,0,*50
1522595178.39,39937,10.94,71068.3,-9.79,-11.85,-11.63,0,*58
1522595179.65,39938,10.94,70962.3,-9.79,-12.15,-11.89,0,*59
1522595180.93,39939,10.94,71160.0,-9.77,-11.89,-11.77,0,*51
1522595182.18,39940,10.94,71104.8,-9.79,-11.85,-11.77,0,*5D
1522595183.43,39941,10.94,71108.0,-9.79,-11.85,-11.73,0,*58
1522595184.69,39942,10.94,71126.8,-9.81,-11.77,-11.77,0,*55
1522595185.94,39943,10.94,71090.5,-9.81,-11.77,-11.67,0,*55
1522595187.19,39944,10.94,71110.8,-9.81,-11.81,-11.67,0,*5B
1522595188.45,39945,10.94,71104.8,-9.81,-11.67,-11.59,0,*5F
1522595189.73,39946,10.94,71166.3,-9.83,-11.67,-11.63,0,*57
1522595190.98,39947,10.94,71126.5,-9.81,-11.63,-11.59,0,*59
1522595192.24,39948,10.94,71134.0,-9.81,-11.77,-11.63,0,*5A
1522595193.49,39949,10.94,71132.0,-9.81,-11.51,-11.37,0,*5E
1522595194.74,39950,10.94,71136.3,-9.81,-11.51,-11.37,0,*56
1522595195.99,39951,10.94,71134.5,-9.81,-11.67,-11.59,0,*5A
1522595197.25,39952,10.94,71168.3,-9.81,-11.63,-11.51,0,*55
1522595198.5,39953,10.94,71164.5,-9.81,-11.59,-11.37,0,*5D
1522595199.73,39954,10.94,71184.0,-9.81,-11.51,-11.45,0,*57
1522595200.98,39955,10.94,71178.3,-9.81,-11.67,-11.59,0,*5E
1522595202.23,39956,10.94,71186.0,-9.81,-11.51,-11.51,0,*50
1522595203.48,39957,10.94,71204.5,-9.81,-11.67,-11.59,0,*5C
1522595204.73,39958,10.94,71206.5,-9.81,-11.51,-11.51,0,*5E
1522595205.98,39959,10.94,71204.8,-9.81,-11.81,-11.77,0,*56
1522595207.23,39960,10.94,71198.8,-9.81,-11.51,-11.51,0,*55
1522595208.48,39961,10.94,71196.5,-9.81,-11.51,-11.51,0,*54
1522595209.71,39962,10.94,71202.5,-9.81,-11.59,-11.45,0,*5A
1522595210.93,39963,10.94,71222.8,-9.81,-11.51,-11.45,0,*53
1522595212.19,39964,10.94,71218.0,-9.81,-11.63,-11.59,0,*58
1522595213.44,39965,10.94,71214.5,-9.81,-11.77,-11.67,0,*51
1522595214.69,39966,10.94,71218.8,-9.81,-11.51,-11.51,0,*53
1522595215.92,39967,10.94,71184.0,-9.81,-11.51,-11.45,0,*57
1522595217.17,39968,11.0,71220.0,-9.81,-11.51,-11.33,0,*59
1522595218.42,39969,10.94,71270.5,-9.83,-11.45,-11.33,0,*5F
1522595219.67,39970,10.94,71190.5,-9.81,-11.51,-11.37,0,*54
1522595220.9,39971,10.94,71172.3,-9.79,-11.55,-11.45,0,*53
1522595222.15,39972,10.94,71164.0,-9.81,-11.77,-11.67,0,*57
1522595223.41,39973,10.94,71166.3,-9.81,-11.77,-11.63,0,*52
1522595224.69,39974,10.94,71100.5,-9.83,-11.81,-11.67,0,*5A
1522595225.94,39975,10.94,71118.8,-9.81,-11.89,-11.81,0,*59
1522595227.19,39976,11.0,71104.8,-9.81,-11.89,-11.89,0,*52
1522595228.47,39977,10.94,71126.8,-9.83,-11.63,-11.51,0,*50
1522595229.72,39978,10.94,71184.8,-9.83,-11.51,-11.45,0,*5B
1522595231.0,39979,10.94,71200.8,-9.83,-11.67,-11.59,0,*52
1522595232.27,39980,10.94,71244.0,-9.83,-11.77,-11.59,0,*55
1522595233.55,39981,10.94,71212.5,-9.83,-11.63,-11.59,0,*51
1522595234.83,39982,10.94,71138.8,-9.83,-11.93,-11.67,0,*50
1522595236.09,39983,10.94,71142.0,-9.83,-12.29,-12.07,0,*56
1522595237.35,39984,10.94,71126.5,-9.85,-11.93,-11.73,0,*55
1522595238.61,39985,10.94,71142.8,-9.85,-11.73,-11.67,0,*5F
1522595239.89,39986,10.94,71138.8,-9.87,-11.97,-11.85,0,*58
1522595241.14,39987,11.0,71142.0,-9.85,-11.97,-11.85,0,*5B
1522595242.42,39988,10.94,71166.8,-9.87,-11.97,-11.81,0,*52
1522595243.68,39989,10.94,71156.3,-9.87,-12.21,-11.97,0,*5A
1522595244.95,39990,10.94,71146.5,-9.87,-11.97,-11.81,0,*5B
1522595246.18,39991,10.94,71094.5,-9.87,-12.39,-12.39,0,*5D
1522595247.44,39992,10.94,71080.8,-9.87,-12.47,-12.35,0,*5B
1522595248.7,39993,10.94,71086.0,-9.89,-12.11,-11.89,0,*53
1522595249.96,39994,10.94,71116.5,-9.89,-11.77,-11.73,0,*52
1522595251.24,39995,10.94,71110.3,-9.91,-11.89,-11.85,0,*52
1522595252.52,39996,10.94,71098.0,-9.91,-11.85,-11.67,0,*51
1522595253.81,39997,10.94,71102.8,-9.91,-11.77,-11.67,0,*5D
1522595255.09,39998,10.94,71110.5,-9.91,-11.77,-11.59,0,*5F
1522595256.37,39999,10.94,71134.3,-9.91,-11.67,-11.59,0,*5F
1522595257.66,40000,10.94,71134.3,-9.91,-11.59,-11.67,0,*58
1522595258.91,40001,10.94,71126.5,-9.89,-11.73,-11.67,0,*58
1522595260.17,40002,10.94,71126.8,-9.89,-11.59,-11.59,0,*5E
1522595261.43,40003,10.94,71148.0,-9.89,-11.67,-11.67,0,*5F
1522595262.71,40004,11.0,71148.8,-9.91,-11.73,-11.77,0,*55
1522595263.99,40005,11.0,71150.5,-9.91,-11.67,-11.59,0,*5D
1522595265.28,40006,10.94,71136.5,-9.91,-11.55,-11.55,0,*53
1522595266.51,40007,10.94,71130.3,-9.89,-11.45,-11.33,0,*5A
1522595267.72,40008,10.94,71140.8,-9.89,-11.45,-11.41,0,*50
1522595268.96,40009,10.94,71152.5,-9.89,-11.33,-11.41,0,*50
1522595270.22,40010,10.94,71144.0,-9.89,-11.55,-11.59,0,*51
1522595271.47,40011,10.94,71130.3,-9.89,-11.89,-11.77,0,*5D
1522595272.72,40012,10.94,71108.0,-9.89,-11.77,-11.77,0,*5F
1522595273.98,40013,10.94,71140.0,-9.89,-11.85,-11.77,0,*53
1522595275.24,40014,10.94,71148.8,-9.89,-11.59,-11.59,0,*59
1522595276.5,40015,10.94,71148.0,-9.89,-11.59,-11.55,0,*54
1522595277.76,40016,10.94,71160.0,-9.89,-11.59,-11.55,0,*57
1522595278.99,40017,10.94,71196.5,-9.89,-11.41,-11.33,0,*5F
1522595280.24,40018,10.94,71208.8,-9.85,-11.37,-11.29,0,*56
1522595281.5,40019,10.94,71158.8,-9.89,-11.67,-11.55,0,*55
1522595282.71,40020,10.94,71164.3,-9.89,-11.41,-11.45,0,*5A
1522595283.99,40021,11.0,71178.0,-9.87,-11.51,-11.51,0,*51
1522595285.26,40022,10.94,71178.3,-9.87,-11.51,-11.51,0,*52
1522595286.52,40023,10.94,71202.3,-9.87,-11.51,-11.41,0,*52
1522595287.8,40024,10.94,71200.8,-9.87,-11.55,-11.51,0,*50
1522595289.05,40025,10.94,71204.5,-9.87,-11.51,-11.41,0,*54
1522595290.33,40026,10.94,71190.5,-9.87,-11.51,-11.51,0,*56
1522595291.58,40027,10.94,71162.0,-9.87,-11.51,-11.41,0,*56
1522595292.84,40028,10.94,71168.3,-9.87,-11.51,-11.41,0,*59
1522595294.12,40029,10.94,71172.3,-9.87,-11.51,-11.51,0,*59
1522595295.37,40030,10.94,71192.0,-9.85,-11.51,-11.51,0,*53